Weather History for Keene, NH

Change the Weather History Date:

Sunday, August 12, 2012

  Actual Average Record
Temperature  
Mean Temperature 75 °F -  
Max Temperature 84 °F 80 °F 97 °F (1944)
Min Temperature 64 °F 56 °F 39 °F (1930)
Cooling Degree Days 10    
Growing Degree Days 25 (Base 50)    
Moisture  
Dew Point 66 °F    
Average Humidity 81    
Maximum Humidity 100    
Minimum Humidity 48    
Precipitation  
Precipitation 0.00 in - - ()
Sea Level Pressure  
Sea Level Pressure 29.90 in    
Wind  
Wind Speed 2 mph (SW)    
Max Wind Speed 13 mph    
Max Gust Speed -    
Visibility 7 miles    
Events      
Averages and records for this station are not official NWS values.
T = Trace of Precipitation, MM = Missing Value Source: NWS Daily Summary

Daily Weather History Graph

Daily Weather History Graph

Search for Another Location

Airport:

Trip Planner

Search our weather history database for the weather conditions in past years. The results will help you decide how hot, cold, wet, or windy it might be!

Date:

Astronomy

Aug. 12, 2012 Rise Set
Actual Time 5:52 AM EDT 7:54 PM EDT
Civil Twilight 5:21 AM EDT 8:25 PM EDT
Nautical Twilight 4:43 AM EDT 9:03 PM EDT
Astronomical Twilight 4:02 AM EDT 9:44 PM EDT
Moon 1:00 AM EDT (8/12) 4:20 PM EDT (8/12)
Length of Visible Light 15h 04m
Length of Day
14h 02m
Waning Crescent, 24% of the Moon is Illuminated
Aug 12
Waning Crescent
Aug 17
New
Aug 24
First Quarter
Aug 31
Full
Sep 8
Last Quarter

Hourly Weather History & Observations

Time (EDT) Temp. Heat Index Dew Point Humidity Pressure Visibility Wind Dir Wind Speed Gust Speed Precip Events Conditions
12:15 AM 68.0 °F - 64.4 °F 88% 29.91 in 10.0 mi West 3.5 mph - N/A   Mostly Cloudy
12:35 AM 68.0 °F - 66.2 °F 94% 29.91 in 5.0 mi Calm Calm - N/A   Mostly Cloudy
12:55 AM 66.2 °F - 66.2 °F 100% 29.91 in 3.0 mi Calm Calm - N/A   Mostly Cloudy
1:15 AM 66.2 °F - 66.2 °F 100% 29.91 in 3.0 mi Calm Calm - N/A   Mostly Cloudy
1:35 AM 66.2 °F - 64.4 °F 94% 29.91 in 4.0 mi Calm Calm - N/A   Mostly Cloudy
1:55 AM 66.2 °F - 66.2 °F 100% 29.91 in 3.0 mi Calm Calm - N/A   Overcast
2:15 AM 66.2 °F - 66.2 °F 100% 29.91 in 4.0 mi Calm Calm - N/A   Overcast
2:35 AM 66.2 °F - 66.2 °F 100% 29.91 in 4.0 mi Calm Calm - N/A   Overcast
2:55 AM 66.2 °F - 66.2 °F 100% 29.91 in 4.0 mi Calm Calm - N/A   Overcast
3:15 AM 66.2 °F - 66.2 °F 100% 29.90 in 4.0 mi Calm Calm - N/A   Mostly Cloudy
3:35 AM 68.0 °F - 66.2 °F 94% 29.91 in 4.0 mi Calm Calm - N/A   Overcast
3:55 AM 68.0 °F - 66.2 °F 94% 29.91 in 4.0 mi Calm Calm - N/A   Overcast
4:15 AM 68.0 °F - 66.2 °F 94% 29.91 in 5.0 mi Calm Calm - N/A   Overcast
4:35 AM 68.0 °F - 66.2 °F 94% 29.91 in 4.0 mi Calm Calm - N/A   Overcast
4:55 AM 68.0 °F - 66.2 °F 94% 29.91 in 5.0 mi Calm Calm - N/A   Overcast
5:15 AM 68.0 °F - 66.2 °F 94% 29.91 in 5.0 mi Calm Calm - N/A   Mostly Cloudy
5:35 AM 68.0 °F - 66.2 °F 94% 29.92 in 5.0 mi Calm Calm - N/A   Overcast
5:55 AM 68.0 °F - 66.2 °F 94% 29.92 in 4.0 mi Calm Calm - N/A   Overcast
6:15 AM 68.0 °F - 66.2 °F 94% 29.92 in 4.0 mi Calm Calm - N/A   Overcast
6:35 AM 69.8 °F - 66.2 °F 88% 29.93 in 3.0 mi Calm Calm - N/A   Overcast
6:55 AM 69.8 °F - 66.2 °F 88% 29.93 in 4.0 mi Calm Calm - N/A   Mostly Cloudy
7:15 AM 69.8 °F - 66.2 °F 88% 29.92 in 3.0 mi Calm Calm - N/A   Mostly Cloudy
7:35 AM 69.8 °F - 66.2 °F 88% 29.91 in 4.0 mi Calm Calm - N/A   Scattered Clouds
7:55 AM 69.8 °F - 66.2 °F 88% 29.92 in 4.0 mi Calm Calm - N/A   Partly Cloudy
8:15 AM 69.8 °F - 68.0 °F 94% 29.92 in 3.0 mi Calm Calm - N/A   Mostly Cloudy
8:35 AM 69.8 °F - 68.0 °F 94% 29.93 in 5.0 mi Calm Calm - N/A   Mostly Cloudy
8:55 AM 69.8 °F - 68.0 °F 94% 29.93 in 5.0 mi Calm Calm - N/A   Overcast
9:15 AM 69.8 °F - 68.0 °F 94% 29.93 in 5.0 mi Calm Calm - N/A   Overcast
9:35 AM 69.8 °F - 68.0 °F 94% 29.92 in 5.0 mi Calm Calm - N/A   Mostly Cloudy
9:55 AM 71.6 °F - 68.0 °F 88% 29.93 in 4.0 mi Calm Calm - N/A   Mostly Cloudy
10:15 AM 71.6 °F - 69.8 °F 94% 29.92 in 5.0 mi Calm Calm - N/A   Mostly Cloudy
10:35 AM 73.4 °F - 69.8 °F 88% 29.92 in 8.0 mi Calm Calm - N/A   Mostly Cloudy
10:55 AM 75.2 °F - 69.8 °F 83% 29.91 in 10.0 mi Calm Calm - N/A   Mostly Cloudy
11:15 AM 75.2 °F - 69.8 °F 83% 29.90 in 10.0 mi Calm Calm - N/A   Mostly Cloudy
11:35 AM 78.8 °F - 69.8 °F 74% 29.89 in 10.0 mi West 4.6 mph - N/A   Scattered Clouds
11:55 AM 78.8 °F - 69.8 °F 74% 29.89 in 10.0 mi West 4.6 mph - N/A   Partly Cloudy
12:15 PM 80.6 °F 83.2 °F 68.0 °F 65% 29.88 in 10.0 mi South 6.9 mph - N/A   Mostly Cloudy
12:35 PM 80.6 °F 83.2 °F 68.0 °F 65% 29.88 in 10.0 mi SSW 4.6 mph - N/A   Overcast
1:15 PM 80.6 °F 82.7 °F 66.2 °F 61% 29.87 in 10.0 mi WSW 6.9 mph - N/A   Scattered Clouds
1:35 PM 82.4 °F 84.6 °F 66.2 °F 58% 29.87 in 10.0 mi WSW 5.8 mph - N/A   Clear
1:55 PM 82.4 °F 84.6 °F 66.2 °F 58% 29.86 in 9.0 mi SW 9.2 mph - N/A   Partly Cloudy
2:15 PM 84.2 °F 86.6 °F 66.2 °F 55% 29.86 in 10.0 mi South 9.2 mph - N/A   Partly Cloudy
2:35 PM 84.2 °F 85.6 °F 64.4 °F 51% 29.86 in 9.0 mi SW 6.9 mph - N/A   Partly Cloudy
2:55 PM 82.4 °F 83.9 °F 64.4 °F 54% 29.85 in 10.0 mi SW 8.1 mph - N/A   Partly Cloudy
3:15 PM 82.4 °F 83.9 °F 64.4 °F 54% 29.85 in 10.0 mi SSW 8.1 mph - N/A   Mostly Cloudy
3:35 PM 82.4 °F 83.9 °F 64.4 °F 54% 29.85 in 10.0 mi SW 5.8 mph - N/A   Overcast
3:55 PM 84.2 °F 85.6 °F 64.4 °F 51% 29.85 in 10.0 mi South 8.1 mph - N/A   Scattered Clouds
4:15 PM 84.2 °F 85.0 °F 62.6 °F 48% 29.85 in 10.0 mi South 8.1 mph - N/A   Clear
4:35 PM 82.4 °F 83.4 °F 62.6 °F 51% 29.85 in 10.0 mi SW 6.9 mph - N/A   Partly Cloudy
4:55 PM 84.2 °F 85.6 °F 64.4 °F 51% 29.84 in 10.0 mi South 12.7 mph - N/A   Partly Cloudy
5:15 PM 84.2 °F 85.6 °F 64.4 °F 51% 29.84 in 10.0 mi SSW 11.5 mph - N/A   Clear
5:35 PM 82.4 °F 83.9 °F 64.4 °F 54% 29.84 in 10.0 mi SW 8.1 mph - N/A   Clear
5:55 PM 80.6 °F 82.7 °F 66.2 °F 61% 29.84 in 10.0 mi South 3.5 mph - N/A   Partly Cloudy
6:15 PM 82.4 °F 84.6 °F 66.2 °F 58% 29.84 in 10.0 mi SW 6.9 mph - N/A   Partly Cloudy
6:35 PM 80.6 °F 82.3 °F 64.4 °F 58% 29.85 in 10.0 mi SW 6.9 mph - N/A   Partly Cloudy
7:15 PM 78.8 °F - 62.6 °F 57% 29.86 in 10.0 mi SSW 4.6 mph - N/A   Clear
7:35 PM 77.0 °F - 66.2 °F 69% 29.87 in 10.0 mi Calm Calm - N/A   Clear
7:55 PM 71.6 °F - 66.2 °F 83% 29.88 in 10.0 mi Calm Calm - N/A   Clear
8:15 PM 69.8 °F - 66.2 °F 88% 29.89 in 10.0 mi Calm Calm - N/A   Partly Cloudy
8:35 PM 71.6 °F - 64.4 °F 78% 29.90 in 10.0 mi Calm Calm - N/A   Mostly Cloudy
8:55 PM 69.8 °F - 66.2 °F 88% 29.90 in 10.0 mi Calm Calm - N/A   Scattered Clouds
9:15 PM 69.8 °F - 66.2 °F 88% 29.91 in 9.0 mi Calm Calm - N/A   Clear
9:35 PM 68.0 °F - 64.4 °F 88% 29.91 in 10.0 mi Calm Calm - N/A   Clear
9:55 PM 66.2 °F - 64.4 °F 94% 29.91 in 10.0 mi Calm Calm - N/A   Clear
10:15 PM 66.2 °F - 64.4 °F 94% 29.91 in 8.0 mi Calm Calm - N/A   Clear
10:35 PM 66.2 °F - 64.4 °F 94% 29.92 in 8.0 mi Calm Calm - N/A   Partly Cloudy
10:55 PM 66.2 °F - 64.4 °F 94% 29.92 in 7.0 mi Calm Calm - N/A   Clear
11:15 PM 66.2 °F - 62.6 °F 88% 29.92 in 7.0 mi Calm Calm - N/A   Clear
11:35 PM 66.2 °F - 64.4 °F 94% 29.92 in 5.0 mi Calm Calm - N/A   Clear
11:55 PM 64.4 °F - 62.6 °F 94% 29.91 in 5.0 mi Calm Calm - N/A   Clear